Etusivu
METAR-TAF:

METAR-TAF

Lentoasemat :

Alexander City, Alabama, Yhdysvallat

Leveyspiiri: 32-54-53N, Pituuspiiri: 085-57-46W, korkeus merenpinnasta: 209 m

Tämänhetkinen sää

Tämä raportti tehtiin 17 minuuttia sitten, kello 11.15 UTC
tyyntä
Lämpötila 22°C
Kosteus 100%
Ilmanpaine 1017 hPa
Näkyvyys: 16.1 km
selkeää

METAR: KALX 241115Z AUTO 00000KT 10SM CLR 22/22 A3003 RMK AO2 LTG DSNT NW T02240217

Aika: 06:32 (11:32 UTC)


TAF: puuttuu

Säähavainnot ja -ennusteet yli 4000 lentoasemalta (METAR- ja TAF-raportit).

Käytössä olevat sääasemat on merkitty karttaan keltaisilla ja punaisilla pisteillä.

Aseta hiiri pisteen päälle nähdäksesi sääaseman nimen.

Klikkaa sitten nähdäksesi säähavainnot ja -ennusteet.

Kartan vaihtaminen: klikkaa mustalla rastilla varustettuja vihreitä pisteitä, niin voit zoomata sisään; viivalla varustettua vihreää pistettä, niin voit zoomata ulos tai vihreitä nuolia, niin pääset viereisille kartoille.


METAR-TAF: